CZ-4C DEB

Satellite information

Favourite Embed

Satellite Type and Status

DEBRISIN ORBIT

Key statistics

Satellite CZ-4C DEB at a glance.

Uptime

5605

Days in orbit

Revolutions

≈ 13.0

Per day

Orbit

LEO

Low Earth Orbit

Inclination

63.3

Latest

Satellite identification and parameters

Extended collection of information and parameters for CZ-4C DEB.

Object identification

Identified? True

Debris? True

Object name: CZ-4C DEB

International designator: 2010-009H

Object number (NORAD): 38304

Object ID (CCSDS): 38304

Country: PEOPLES REPUBLIC OF CHINA (PRC)

Current information (Y/N): Y

RCS size: SMALL

Orbital parameters

Period: 110.416 minutes

Inclination: 63.3096 deg

SMA: 7623.984 km

Apoapsis: 1467.873 km

Periapsis: 1023.824 km

RAAN: 86.1469 deg

Eccentricy: 0.0291218

Argument of periapsis: 21.1808 deg

Mean anomaly: 74.1768 deg

Mean motion: 13.04156871 rev/day

Mean motion (dot): -0.00000095 rev/day2

B* drag term: -0.000036333 1/REarth

Two-line elements (TLE)

Creation date: July 8, 2025, 5:26 p.m.

Reference frame: TEME

Reference center: EARTH

Epoch: July 8, 2025, 7:27 a.m. UTC

TLE line 0: 0 CZ-4C DEB

TLE line 1: 1 38304U 10009H 25189.31076571 -.00000095 00000-0 -36333-4 0 9991

TLE line 2: 2 38304 63.3096 86.1469 0291218 21.1808 74.1768 13.04156871564457

Live tracking on map

Real-time ground track for satellite CZ-4C DEB.

In-orbit conjunctions

A list of the most updated potential collisions computed for object CZ-4C DEB.

Target Orbit TCA Probability of collision Miss distance Type
COSMOS 2119 LEO 2024-10-30 16:12:32 0.0004987809 692.0 (m) PAYLOAD

Associated space launch

CZ-4C DEB was lifted into orbit during the mission ‘Long March 4C | Yaogan-9’, on board a Long March 4C space rocket.

The launch took place on March 5, 2010, 4:55 a.m. from Launch Area 4 (SLS-2 / 603).

For more information about the launch, click the button.

Launch to space Long March 4C | Yaogan-9
Long March 4C | Yaogan-9

Agency: N/A

Status: Launch Successful

Launch date: March 5, 2010, 4:55 a.m. UTC

Rocket: Long March 4C

Launch pad: Launch Area 4 (SLS-2 / 603)

Location: Jiuquan Satellite Launch Center, People's Republic of China

...

Latest news about this satellite

There are no fresh news available about this satellite. Check back as we update our databases every day.


Newsletter sign-up

Weekly statistics, charts and insights to help you stay on top of the space industry.